This is the latest recevied weather packets stored in our database for station/object EA4CZ-13. If no packets are shown the sender has not sent any weather packets the latest 1 day(s).
| Time | Temp. | Humidity | Pressure | Rain* | Wind** | Luminosity | Snow |
|---|---|---|---|---|---|---|---|
| 1778444476 | 12.78° C | 82% | 1011.2 hPa | 0 mm | - | 0 W/m² | - |
| 1778444176 | 12.78° C | 82% | 1011.2 hPa | 0 mm | - | 0 W/m² | - |
| 1778443876 | 12.78° C | 82% | 1010.8 hPa | 0 mm | - | 0 W/m² | - |
| 1778443576 | 12.78° C | 82% | 1010.8 hPa | 0 mm | - | 0 W/m² | - |
| 1778443276 | 12.78° C | 82% | 1010.8 hPa | 0 mm | - | 0 W/m² | - |
| 1778442976 | 12.78° C | 81% | 1010.8 hPa | 0 mm | - | 0 W/m² | - |
| 1778442676 | 12.78° C | 81% | 1010.8 hPa | 0 mm | - | 0 W/m² | - |
| 1778442376 | 12.78° C | 83% | 1010.8 hPa | 0 mm | - | 0 W/m² | - |
| 1778441776 | 12.78° C | 82% | 1010.5 hPa | 0 mm | - | 0 W/m² | - |
| 1778441476 | 12.78° C | 80% | 1010.5 hPa | 0 mm | - | 0 W/m² | - |
| 1778441176 | 12.78° C | 79% | 1010.5 hPa | 0 mm | - | 0 W/m² | - |
| 1778440876 | 13.33° C | 78% | 1010.5 hPa | 0 mm | - | 1 W/m² | - |
| 1778440576 | 13.33° C | 76% | 1010.5 hPa | 0 mm | - | 3 W/m² | - |
| 1778440276 | 13.33° C | 74% | 1010.5 hPa | 0 mm | - | 6 W/m² | - |
| 1778439676 | 13.89° C | 73% | 1010.2 hPa | 0 mm | - | 15 W/m² | - |
| 1778439076 | 14.44° C | 70% | 1010.2 hPa | 0 mm | - | 29 W/m² | - |
| 1778436676 | 14.44° C | 69% | 1009.5 hPa | 0 mm | - | 62 W/m² | - |
| 1778434875 | 14.44° C | 68% | 1009.8 hPa | 0 mm | - | 42 W/m² | - |
| 1778433675 | 15° C | 69% | 1009.8 hPa | 0 mm | - | 79 W/m² | - |
| 1778433075 | 15° C | 67% | 1009.8 hPa | 0 mm | - | 69 W/m² | - |
| 1778432475 | 15° C | 66% | 1009.8 hPa | 0 mm | - | 83 W/m² | - |
| 1778430375 | 15.56° C | 65% | 1009.5 hPa | 0 mm | - | 382 W/m² | - |
| 1778430075 | 15° C | 66% | 1009.8 hPa | 0 mm | - | 285 W/m² | - |
| 1778429775 | 15.56° C | 65% | 1009.5 hPa | 0 mm | - | 126 W/m² | - |
| 1778429475 | 16.11° C | 66% | 1009.5 hPa | 0 mm | - | 481 W/m² | - |
* Rain latest hour (hover to see other rain measurements)
** Current wind speed in m/s (hover to see current wind gust speed)